• In Deutschland
  • Länderverzeichnis
  • Für 7 Tage
  • Wassertemperatur
  • Satellitenkarten
  • Wetterkarte
  • Widgets
  • user-avatar
    Anmelden

    Stündliche Wetter Fuessen

    Heute, 17 Oktober, Dienstag

    Zeit Temperatur Niederschläge Wind Luftdruck Luftfeuchtigkeit
    00:00 +13°C° 0 mm 2 m/S 697 mmHg 66%
    01:00 +13°C° 0 mm 2 m/S 697 mmHg 60%
    02:00 +13°C° 0 mm 2 m/S 697 mmHg 60%
    03:00 +12°C° 0 mm 1 m/S 696 mmHg 60%
    04:00 +12°C° 0 mm 1 m/S 696 mmHg 59%
    05:00 +12°C° 0 mm 1 m/S 696 mmHg 59%
    06:00 +12°C° 0 mm 1 m/S 696 mmHg 59%
    07:00 +11°C° 0 mm 1 m/S 696 mmHg 63%
    08:00 +14°C° 0 mm 1 m/S 696 mmHg 58%
    09:00 +18°C° 0 mm 1 m/S 697 mmHg 52%
    10:00 +19°C° 0 mm 0 m/S 697 mmHg 46%
    11:00 +22°C° 0 mm 1 m/S 697 mmHg 44%
    12:00 +22°C° 0 mm 1 m/S 696 mmHg 43%
    13:00 +23°C° 0 mm 1 m/S 696 mmHg 41%
    14:00 +22°C° 0 mm 1 m/S 696 mmHg 48%
    15:00 +21°C° 0 mm 1 m/S 695 mmHg 55%
    16:00 +20°C° 0 mm 1 m/S 694 mmHg 62%
    17:00 +18°C° 0 mm 1 m/S 694 mmHg 66%
    18:00 +15°C° 0 mm 1 m/S 694 mmHg 70%
    19:00 +13°C° 0 mm 1 m/S 693 mmHg 75%
    20:00 +13°C° 0 mm 1 m/S 693 mmHg 73%
    21:00 +13°C° 0 mm 1 m/S 693 mmHg 70%
    22:00 +12°C° 0 mm 2 m/S 693 mmHg 68%
    23:00 +12°C° 0 mm 2 m/S 693 mmHg 67%

    Morgen, 18 Oktober, Mittwoch

    Zeit Temperatur Niederschläge Wind Luftdruck Luftfeuchtigkeit
    00:00 +12°C° 0 mm 2 m/S 692 mmHg 66%
    01:00 +10°C° 0 mm 2 m/S 692 mmHg 64%
    02:00 +10°C° 0 mm 2 m/S 692 mmHg 63%
    03:00 +10°C° 0 mm 2 m/S 692 mmHg 62%
    04:00 +10°C° 0 mm 2 m/S 691 mmHg 61%
    05:00 +9°C° 0 mm 2 m/S 691 mmHg 60%
    06:00 +10°C° 0 mm 1 m/S 691 mmHg 58%
    07:00 +10°C° 0 mm 1 m/S 691 mmHg 57%
    08:00 +13°C° 0 mm 1 m/S 691 mmHg 54%
    09:00 +15°C° 0 mm 1 m/S 691 mmHg 50%
    10:00 +17°C° 0 mm 0 m/S 692 mmHg 46%
    11:00 +20°C° 0 mm 1 m/S 691 mmHg 44%
    12:00 +20°C° 0 mm 1 m/S 691 mmHg 43%
    13:00 +21°C° 0 mm 1 m/S 691 mmHg 42%
    14:00 +20°C° 0 mm 1 m/S 691 mmHg 48%
    15:00 +20°C° 0 mm 1 m/S 690 mmHg 54%
    16:00 +19°C° 0 mm 1 m/S 690 mmHg 60%
    17:00 +16°C° 0 mm 1 m/S 690 mmHg 67%
    18:00 +13°C° 0 mm 1 m/S 690 mmHg 75%
    19:00 +11°C° 0 mm 1 m/S 690 mmHg 82%
    20:00 +11°C° 0 mm 1 m/S 690 mmHg 80%
    21:00 +11°C° 0 mm 1 m/S 690 mmHg 78%
    22:00 +10°C° 0 mm 1 m/S 690 mmHg 76%
    23:00 +10°C° 0 mm 1 m/S 690 mmHg 75%

    übermorgen, 19 Oktober, Donnerstag

    Zeit Temperatur Niederschläge Wind Luftdruck Luftfeuchtigkeit
    00:00 +10°C° 0 mm 1 m/S 690 mmHg 73%
    01:00 +9°C° 0 mm 2 m/S 690 mmHg 71%
    02:00 +10°C° 0 mm 1 m/S 690 mmHg 70%
    03:00 +9°C° 0 mm 1 m/S 689 mmHg 68%
    04:00 +9°C° 0 mm 1 m/S 689 mmHg 67%
    05:00 +9°C° 0 mm 1 m/S 689 mmHg 66%
    06:00 +9°C° 0 mm 1 m/S 689 mmHg 64%
    07:00 +9°C° 0 mm 1 m/S 689 mmHg 63%
    08:00 +11°C° 0 mm 1 m/S 689 mmHg 57%
    09:00 +14°C° 0 mm 1 m/S 690 mmHg 51%
    10:00 +16°C° 0 mm 0 m/S 690 mmHg 45%
    11:00 +19°C° 0 mm 1 m/S 690 mmHg 43%
    12:00 +20°C° 0 mm 1 m/S 690 mmHg 42%
    13:00 +21°C° 0 mm 1 m/S 690 mmHg 40%
    14:00 +20°C° 0 mm 1 m/S 690 mmHg 47%
    15:00 +19°C° 0 mm 1 m/S 690 mmHg 54%
    16:00 +18°C° 0 mm 1 m/S 689 mmHg 61%
    17:00 +15°C° 0 mm 1 m/S 689 mmHg 67%
    18:00 +13°C° 0 mm 1 m/S 689 mmHg 72%
    19:00 +12°C° 0 mm 1 m/S 689 mmHg 78%
    20:00 +11°C° 0 mm 1 m/S 689 mmHg 76%
    21:00 +11°C° 0 mm 1 m/S 690 mmHg 74%
    22:00 +11°C° 0 mm 1 m/S 690 mmHg 72%
    23:00 +11°C° 0 mm 1 m/S 690 mmHg 71%

    20 Oktober, Freitag

    Zeit Temperatur Niederschläge Wind Luftdruck Luftfeuchtigkeit
    00:00 +11°C° 0 mm 1 m/S 690 mmHg 70%
    01:00 +11°C° 0 mm 1 m/S 690 mmHg 69%
    02:00 +11°C° 0 mm 1 m/S 690 mmHg 70%
    03:00 +10°C° 0 mm 1 m/S 690 mmHg 71%
    04:00 +10°C° 0 mm 1 m/S 690 mmHg 72%
    05:00 +10°C° 0 mm 1 m/S 690 mmHg 73%
    06:00 +9°C° 0 mm 2 m/S 690 mmHg 74%
    07:00 +8°C° 0 mm 2 m/S 690 mmHg 75%
    08:00 +12°C° 0 mm 1 m/S 691 mmHg 68%
    09:00 +15°C° 0 mm 1 m/S 692 mmHg 61%
    10:00 +18°C° 0 mm 1 m/S 692 mmHg 55%
    11:00 +19°C° 0 mm 1 m/S 692 mmHg 53%
    12:00 +20°C° 0 mm 1 m/S 692 mmHg 50%
    13:00 +20°C° 0 mm 1 m/S 692 mmHg 48%
    14:00 +20°C° 0 mm 1 m/S 692 mmHg 53%
    15:00 +19°C° 0 mm 1 m/S 692 mmHg 57%
    16:00 +19°C° 0 mm 1 m/S 692 mmHg 62%
    17:00 +16°C° 0 mm 1 m/S 692 mmHg 68%
    18:00 +14°C° 0 mm 1 m/S 692 mmHg 74%
    19:00 +11°C° 0 mm 1 m/S 691 mmHg 80%
    20:00 +11°C° 0 mm 1 m/S 692 mmHg 79%
    21:00 +11°C° 0 mm 1 m/S 692 mmHg 77%
    22:00 +10°C° 0 mm 2 m/S 692 mmHg 76%
    23:00 +10°C° 0 mm 2 m/S 692 mmHg 74%

    21 Oktober, Samstag

    Zeit Temperatur Niederschläge Wind Luftdruck Luftfeuchtigkeit
    00:00 +10°C° 0 mm 2 m/S 692 mmHg 73%
    01:00 +10°C° 0 mm 2 m/S 692 mmHg 71%
    02:00 +10°C° 0 mm 2 m/S 691 mmHg 70%
    03:00 +9°C° 0 mm 2 m/S 691 mmHg 69%
    04:00 +9°C° 0 mm 2 m/S 691 mmHg 67%
    05:00 +9°C° 0 mm 2 m/S 691 mmHg 66%
    06:00 +9°C° 0 mm 2 m/S 691 mmHg 65%
    07:00 +9°C° 0 mm 2 m/S 691 mmHg 64%
    08:00 +13°C° 0 mm 1 m/S 691 mmHg 59%
    09:00 +16°C° 0 mm 1 m/S 692 mmHg 54%
    10:00 +19°C° 0 mm 1 m/S 692 mmHg 49%
    11:00 +20°C° 0 mm 1 m/S 692 mmHg 47%
    12:00 +21°C° 0 mm 1 m/S 692 mmHg 44%
    13:00 +22°C° 0 mm 1 m/S 692 mmHg 42%
    14:00 +21°C° 0 mm 1 m/S 692 mmHg 49%
    15:00 +19°C° 0 mm 2 m/S 692 mmHg 56%
    16:00 +18°C° 0 mm 2 m/S 691 mmHg 63%
    17:00 +16°C° 0 mm 2 m/S 691 mmHg 71%
    18:00 +14°C° 0 mm 1 m/S 692 mmHg 80%
    19:00 +12°C° 0 mm 1 m/S 692 mmHg 88%
    20:00 +12°C° 0 mm 1 m/S 692 mmHg 89%
    21:00 +12°C° 0 mm 1 m/S 692 mmHg 91%
    22:00 +12°C° 0 mm 1 m/S 692 mmHg 92%
    23:00 +12°C° 0,5 mm 1 m/S 692 mmHg 93%

    22 Oktober, Sonntag

    Zeit Temperatur Niederschläge Wind Luftdruck Luftfeuchtigkeit
    00:00 +12°C° 0,5 mm 1 m/S 692 mmHg 95%
    01:00 +11°C° 0,5 mm 1 m/S 692 mmHg 96%
    02:00 +10°C° 2,1 mm 2 m/S 691 mmHg 96%
    03:00 +9°C° 2,1 mm 2 m/S 691 mmHg 97%
    04:00 +9°C° 2,1 mm 2 m/S 691 mmHg 97%
    05:00 +8°C° 2 mm 2 m/S 691 mmHg 97%
    06:00 +8°C° 2 mm 2 m/S 691 mmHg 97%
    07:00 +7°C° 2 mm 2 m/S 691 mmHg 97%
    08:00 +7°C° 1,7 mm 2 m/S 691 mmHg 97%
    09:00 +7°C° 1,7 mm 2 m/S 691 mmHg 97%
    10:00 +7°C° 1,7 mm 2 m/S 691 mmHg 97%
    11:00 +7°C° 1,7 mm 2 m/S 691 mmHg 96%
    12:00 +7°C° 1,7 mm 2 m/S 691 mmHg 96%
    13:00 +7°C° 1,7 mm 3 m/S 692 mmHg 96%
    14:00 +7°C° 0,7 mm 3 m/S 692 mmHg 95%
    15:00 +6°C° 0,7 mm 2 m/S 692 mmHg 94%
    16:00 +6°C° 0,7 mm 2 m/S 692 mmHg 93%
    17:00 +6°C° 0,1 mm 2 m/S 692 mmHg 94%
    18:00 +5°C° 0,1 mm 2 m/S 693 mmHg 95%
    19:00 +4°C° 0,1 mm 2 m/S 693 mmHg 96%
    20:00 +4°C° 0 mm 2 m/S 693 mmHg 96%
    21:00 +3°C° 0 mm 2 m/S 693 mmHg 96%
    22:00 +3°C° 0 mm 2 m/S 694 mmHg 96%
    23:00 +3°C° 0,1 mm 2 m/S 694 mmHg 96%
    Mehr zeigen